Satellite: RS-30
Catalog number: 32953
Epoch time:      11020.61115638
Element set:     403
Inclination:      082.5001 deg
RA of node:       254.4752 deg
Eccentricity:    0.0019279
Arg of perigee:   351.1083 deg
Mean anomaly:     008.9650 deg
Mean motion:   12.43010391 rev/day
Decay rate:        1.0e-07 rev/day^2
Epoch rev:           12075
Checksum:              240

Satellite: TACSAT-3
Catalog number: 35001
Epoch time:      11019.92579522
Element set:    0501
Inclination:      040.4567 deg
RA of node:       349.7627 deg
Eccentricity:    0.0022377
Arg of perigee:   190.5673 deg
Mean anomaly:     169.4676 deg
Mean motion:   15.44487517 rev/day
Decay rate:      5.304e-05 rev/day^2
Epoch rev:           09412
Checksum:              309

Satellite: PHARMSAT
Catalog number: 35002
Epoch time:      11020.27701721
Element set:     451
Inclination:      040.4704 deg
RA of node:       345.1460 deg
Eccentricity:    0.0024585
Arg of perigee:   196.9317 deg
Mean anomaly:     163.0680 deg
Mean motion:   15.44724721 rev/day
Decay rate:      4.318e-05 rev/day^2
Epoch rev:            9420
Checksum:              253

Satellite: HAWKSAT1
Catalog number: 35003
Epoch time:      11020.90950759
Element set:     492
Inclination:      040.4613 deg
RA of node:       327.0113 deg
Eccentricity:    0.0024417
Arg of perigee:   227.0119 deg
Mean anomaly:     132.8649 deg
Mean motion:   15.51194989 rev/day
Decay rate:     1.3539e-04 rev/day^2
Epoch rev:            9446
Checksum:              286

Satellite: CP6
Catalog number: 35004
Epoch time:      11019.93995825
Element set:    0502
Inclination:      040.4598 deg
RA of node:       329.2561 deg
Eccentricity:    0.0023801
Arg of perigee:   226.0213 deg
Mean anomaly:     133.8626 deg
Mean motion:   15.53320987 rev/day
Decay rate:     1.6257e-04 rev/day^2
Epoch rev:           09434
Checksum:              295

Satellite: AEROCUB3
Catalog number: 35005
Epoch time:      11006.09222617
Element set:     610
Inclination:      040.4461 deg
RA of node:       021.7975 deg
Eccentricity:    0.0025578
Arg of perigee:   084.1677 deg
Mean anomaly:     280.7191 deg
Mean motion:   16.39196088 rev/day
Decay rate:  1.4049365e-01 rev/day^2
Epoch rev:            9254
Checksum:              305

Satellite: METEOR-M
Catalog number: 35865
Epoch time:      11020.72323613
Element set:      28
Inclination:      098.7289 deg
RA of node:       077.6198 deg
Eccentricity:    0.0003260
Arg of perigee:   091.2889 deg
Mean anomaly:     268.8623 deg
Mean motion:   14.21834173 rev/day
Decay rate:       1.76e-06 rev/day^2
Epoch rev:            6963
Checksum:              314

Satellite: RS-38
Catalog number: 35869
Epoch time:      11020.81123114
Element set:      42
Inclination:      098.7271 deg
RA of node:       077.7479 deg
Eccentricity:    0.0005430
Arg of perigee:   094.1076 deg
Mean anomaly:     266.0682 deg
Mean motion:   14.21998412 rev/day
Decay rate:       1.77e-06 rev/day^2
Epoch rev:            6965
Checksum:              309

/EX


_______________________________________________
Via the Keps mailing list courtesy of AMSAT-NA
http://amsat.org/mailman/listinfo/keps

--- ViaMAIL!/WC v1.60d
 * Origin: Chowdanet (401-724-4410) telnet://chowdanet.com  (1:323/120)